Weather History for Port Angeles, WA

Change the Weather History Date:

Sunday, September 15, 2013

  Actual Average Record
Temperature  
Mean Temperature 57 °F -  
Max Temperature 61 °F 66 °F 79 °F (1957)
Min Temperature 53 °F 47 °F 38 °F (1992)
Degree Days  
Heating Degree Days 8    
Growing Degree Days 7 (Base 50)    
Moisture  
Dew Point 55 °F    
Average Humidity 96    
Maximum Humidity 100    
Minimum Humidity 90    
Precipitation  
Precipitation 0.27 in - - ()
Sea Level Pressure  
Sea Level Pressure 29.75 in    
Wind  
Wind Speed 5 mph (WNW)    
Max Wind Speed 12 mph    
Max Gust Speed -    
Visibility 4 miles    
Events Fog , Rain    
Averages and records for this station are not official NWS values.
T = Trace of Precipitation, MM = Missing Value Source: NWS Daily Summary

Daily Weather History Graph

Daily Weather History Graph

Search for Another Location

Airport:

Trip Planner

Search our weather history database for the weather conditions in past years. The results will help you decide how hot, cold, wet, or windy it might be!

Date:

Astronomy

Sep. 15, 2013 Rise Set
Actual Time 6:51 AM PDT 7:25 PM PDT
Civil Twilight 6:20 AM PDT 7:56 PM PDT
Nautical Twilight 5:42 AM PDT 8:33 PM PDT
Astronomical Twilight 5:04 AM PDT 9:12 PM PDT
Moon 5:09 PM PDT (9/15) 2:20 AM PDT (9/15)
Length of Visible Light 13h 36m
Length of Day
12h 34m
Waxing Gibbous, 83% of the Moon is Illuminated
Sep 15
Waxing Gibbous
Sep 19
Full
Sep 26
Last Quarter
Oct 4
New
Oct 11
First Quarter

Hourly Weather History & Observations

Time (PDT) Temp. Dew Point Humidity Pressure Visibility Wind Dir Wind Speed Gust Speed Precip Events Conditions
12:02 AM 54.0 °F 54.0 °F 100% 29.76 in 0.2 mi WNW 3.5 mph - N/A Fog Fog
12:17 AM 54.0 °F 54.0 °F 100% 29.76 in 0.2 mi West 3.5 mph - N/A Fog Fog
12:30 AM 55.0 °F 54.0 °F 96% 29.76 in 0.5 mi WNW 4.6 mph - N/A Fog Fog
12:53 AM 55.0 °F 54.0 °F 96% 29.76 in 1.0 mi West 5.8 mph - N/A   Mist
1:17 AM 55.0 °F 54.0 °F 96% 29.76 in 0.8 mi WNW 4.6 mph - N/A   Mist
1:53 AM 55.0 °F 54.0 °F 96% 29.75 in 1.2 mi WNW 6.9 mph - N/A   Overcast
2:00 AM 55.0 °F 54.0 °F 96% 29.75 in 3.0 mi West 6.9 mph - N/A   Overcast
2:53 AM 54.0 °F 53.1 °F 97% 29.75 in 4.0 mi WSW 3.5 mph - N/A   Mostly Cloudy
3:05 AM 53.1 °F 53.1 °F 100% 29.74 in 2.5 mi WSW 4.6 mph - N/A   Mostly Cloudy
3:12 AM 53.1 °F 52.0 °F 96% 29.74 in 7.0 mi West 3.5 mph - N/A   Mostly Cloudy
3:19 AM 53.1 °F 52.0 °F 96% 29.74 in 2.5 mi Calm Calm - N/A   Scattered Clouds
3:24 AM 53.1 °F 52.0 °F 96% 29.74 in 1.0 mi West 3.5 mph - N/A   Mist
3:33 AM 53.1 °F 53.1 °F 100% 29.74 in 2.0 mi Calm Calm - N/A   Partly Cloudy
3:37 AM 53.1 °F 52.0 °F 96% 29.74 in 1.0 mi Calm Calm - N/A   Mist
3:44 AM 53.1 °F 52.0 °F 96% 29.74 in 0.2 mi Calm Calm - N/A Fog Fog
3:53 AM 53.1 °F 52.0 °F 96% 29.74 in 0.5 mi Calm Calm - N/A Fog Fog
4:06 AM 54.0 °F 53.1 °F 97% 29.74 in 2.0 mi Calm Calm - N/A   Overcast
4:22 AM 53.1 °F 53.1 °F 100% 29.74 in 6.0 mi West 3.5 mph - N/A   Overcast
4:41 AM 54.0 °F 53.1 °F 97% 29.74 in 2.5 mi West 5.8 mph - N/A   Overcast
4:53 AM 54.0 °F 53.1 °F 97% 29.74 in 1.2 mi WNW 4.6 mph - N/A   Overcast
5:36 AM 55.0 °F 54.0 °F 96% 29.73 in 1.0 mi WNW 6.9 mph - N/A   Mist
5:48 AM 55.4 °F 53.6 °F 94% 29.73 in 3.0 mi WNW 8.1 mph - N/A   Overcast
5:53 AM 55.0 °F 54.0 °F 96% 29.73 in 2.5 mi WNW 8.1 mph - N/A   Overcast
6:02 AM 55.0 °F 54.0 °F 96% 29.73 in 1.0 mi WNW 5.8 mph - N/A   Overcast
6:14 AM 55.0 °F 55.0 °F 100% 29.73 in 0.8 mi WNW 6.9 mph - N/A   Mist
6:28 AM 55.0 °F 55.0 °F 100% 29.73 in 1.8 mi WNW 6.9 mph - N/A   Overcast
6:44 AM 55.9 °F 55.0 °F 97% 29.73 in 0.5 mi WNW 6.9 mph - N/A Fog Fog
6:53 AM 55.9 °F 55.0 °F 97% 29.73 in 0.5 mi WNW 9.2 mph - N/A Fog Fog
7:34 AM 55.9 °F 55.0 °F 97% 29.73 in 1.0 mi WNW 8.1 mph - N/A   Overcast
7:42 AM 57.0 °F 55.9 °F 96% 29.73 in 0.5 mi West 8.1 mph - N/A Fog Fog
7:53 AM 57.0 °F 55.9 °F 96% 29.73 in 0.2 mi West 5.8 mph - N/A Fog Fog
8:15 AM 57.0 °F 57.0 °F 100% 29.72 in 0.5 mi West 8.1 mph - N/A Fog Fog
8:29 AM 57.0 °F 55.9 °F 96% 29.72 in 1.0 mi NW 6.9 mph - N/A   Overcast
8:36 AM 57.0 °F 55.9 °F 96% 29.72 in 3.0 mi NW 5.8 mph - N/A   Overcast
8:53 AM 57.0 °F 55.9 °F 96% 29.72 in 10.0 mi WNW 4.6 mph - N/A   Overcast
9:42 AM 57.9 °F 57.0 °F 97% 29.72 in 1.8 mi NW 4.6 mph - N/A   Overcast
9:53 AM 57.9 °F 57.0 °F 97% 29.73 in 0.8 mi NW 4.6 mph - N/A   Overcast
10:01 AM 57.9 °F 57.0 °F 97% 29.73 in 2.0 mi WNW 4.6 mph - N/A   Overcast
10:09 AM 57.9 °F 57.0 °F 97% 29.73 in 6.0 mi WNW 3.5 mph - N/A   Overcast
10:43 AM 57.9 °F 55.9 °F 93% 29.76 in 1.8 mi WNW 6.9 mph - 0.05 in Rain Heavy Rain
10:53 AM 57.9 °F 55.9 °F 93% 29.76 in 2.5 mi NW 6.9 mph - 0.05 in Rain Light Rain
11:09 AM 57.9 °F 57.0 °F 97% 29.76 in 8.0 mi WNW 11.5 mph - 0.00 in   Overcast
11:53 AM 57.9 °F 55.9 °F 93% 29.74 in 7.0 mi NW 10.4 mph - 0.02 in Rain Light Rain
12:53 PM 59.0 °F 57.0 °F 93% 29.74 in 10.0 mi NNW 3.5 mph - 0.00 in   Overcast
1:39 PM 60.1 °F 57.9 °F 93% 29.73 in 10.0 mi WSW 4.6 mph - N/A   Mostly Cloudy
1:53 PM 61.0 °F 57.9 °F 90% 29.74 in 10.0 mi NNW 3.5 mph - N/A   Mostly Cloudy
2:21 PM 60.1 °F 57.0 °F 90% 29.75 in 10.0 mi North 5.8 mph - N/A   Overcast
2:53 PM 59.0 °F 57.0 °F 93% 29.77 in 10.0 mi West 5.8 mph - N/A   Overcast
3:49 PM 59.0 °F 57.2 °F 94% 29.76 in 6.0 mi Calm Calm - 0.05 in Rain Light Rain
3:53 PM 60.1 °F 57.9 °F 93% 29.77 in 6.0 mi SSE 3.5 mph - 0.06 in Rain Light Rain
4:12 PM 57.9 °F 57.0 °F 97% 29.74 in 3.0 mi WNW 6.9 mph - 0.02 in Rain Light Rain
4:21 PM 57.9 °F 57.0 °F 97% 29.76 in 7.0 mi West 4.6 mph - 0.02 in Rain Light Rain
4:50 PM 57.2 °F 57.2 °F 100% 29.77 in 8.0 mi Variable 5.8 mph - 0.04 in Rain Light Rain
4:53 PM 57.9 °F 57.0 °F 97% 29.77 in 8.0 mi SSW 6.9 mph - 0.04 in Rain Light Rain
5:53 PM 60.1 °F 57.0 °F 90% 29.80 in 10.0 mi WSW 4.6 mph - 0.01 in Rain Light Rain
6:53 PM 59.0 °F 57.0 °F 93% 29.78 in 10.0 mi West 8.1 mph - 0.05 in   Overcast
7:53 PM 59.0 °F 57.0 °F 93% 29.80 in 10.0 mi South 3.5 mph - N/A   Overcast
8:06 PM 59.0 °F 57.0 °F 93% 29.78 in 10.0 mi Calm Calm - N/A   Overcast
8:34 PM 59.0 °F 57.9 °F 96% 29.78 in 10.0 mi Calm Calm - N/A   Overcast
8:44 PM 59.0 °F 57.0 °F 93% 29.78 in 10.0 mi WNW 5.8 mph - N/A   Overcast
8:53 PM 59.0 °F 57.9 °F 96% 29.79 in 10.0 mi NW 8.1 mph - N/A   Overcast
9:00 PM 59.0 °F 57.0 °F 93% 29.80 in 10.0 mi WNW 6.9 mph - N/A   Overcast
9:53 PM 59.0 °F 57.0 °F 93% 29.79 in 10.0 mi West 5.8 mph - N/A   Overcast
10:53 PM 59.0 °F 57.0 °F 93% 29.79 in 7.0 mi West 5.8 mph - 0.02 in Rain Light Rain
11:53 PM 59.0 °F 57.0 °F 93% 29.80 in 5.0 mi West 5.8 mph - 0.02 in   Overcast